Waarnemingen

Advertentie
Mijn weer
Gijon, Spanje (8014): temperatuur & dauwpunt: 15.02.2018 13:00:00 - 21.02.2018 13:00:00 (CET)Gijon, Spanje (8014): windsnelheid: 15.02.2018 13:00:00 - 21.02.2018 13:00:00 (CET)Gijon, Spanje (8014): windrichting: 15.02.2018 13:00:00 - 21.02.2018 13:00:00 (CET)Gijon, Spanje (8014): luchtdruk: 15.02.2018 13:00:00 - 21.02.2018 13:00:00 (CET)Gijon, Spanje (8014): zicht: 15.02.2018 13:00:00 - 21.02.2018 13:00:00 (CET)
Datum & Tijd tt [°C] td [°C] ff [km/u] ff [kn] dd ppp [hPa] vv [km]
21.02.2018 13:00:00 11,5 5,2 9 5 ONO 1020,2 20
21.02.2018 12:00:00 - - - - - - -
21.02.2018 11:00:00 - - - - - - -
21.02.2018 10:00:00 9,8 4,2 9 5 NO 1021,1 15
21.02.2018 09:00:00 - - - - - - -
21.02.2018 08:00:00 - - - - - - -
21.02.2018 07:00:00 10,3 4,5 13 7 NO 1021,3 15
21.02.2018 06:00:00 - - - - - - -
21.02.2018 05:00:00 - - - - - - -
21.02.2018 04:00:00 - - - - - - -
21.02.2018 03:00:00 - - - - - - -
21.02.2018 02:00:00 - - - - - - -
21.02.2018 01:00:00 - - - - - - -
21.02.2018 00:00:00 - - - - - - -
20.02.2018 23:00:00 - - - - - - -
20.02.2018 22:00:00 - - - - - - -
20.02.2018 21:00:00 - - - - - - -
20.02.2018 20:00:00 - - - - - - -
20.02.2018 19:00:00 11,4 10,6 5 3 W 1023,5 12
20.02.2018 18:00:00 - - - - - - -
20.02.2018 17:00:00 - - - - - - -
20.02.2018 16:00:00 10,8 9,9 5 3 NW 1023,9 12
20.02.2018 15:00:00 - - - - - - -
20.02.2018 14:00:00 - - - - - - -
20.02.2018 13:00:00 11,4 10,0 4 2 Z 1025,8 12
20.02.2018 12:00:00 - - - - - - -
20.02.2018 11:00:00 - - - - - - -
20.02.2018 10:00:00 10,2 9,1 9 5 WZW 1025,4 12
20.02.2018 09:00:00 - - - - - - -
20.02.2018 08:00:00 - - - - - - -
20.02.2018 07:00:00 11,1 7,8 8 4 WNW 1024,5 12
20.02.2018 06:00:00 - - - - - - -
20.02.2018 05:00:00 - - - - - - -
20.02.2018 04:00:00 - - - - - - -
20.02.2018 03:00:00 - - - - - - -
20.02.2018 02:00:00 - - - - - - -
20.02.2018 01:00:00 - - - - - - -
20.02.2018 00:00:00 - - - - - - -
19.02.2018 23:00:00 - - - - - - -
19.02.2018 22:00:00 - - - - - - -
19.02.2018 21:00:00 - - - - - - -
19.02.2018 20:00:00 - - - - - - -
19.02.2018 19:00:00 12,1 11,3 4 2 NNO 1023,3 15
19.02.2018 18:00:00 - - - - - - -
19.02.2018 17:00:00 - - - - - - -
19.02.2018 16:00:00 - - - - - - -
19.02.2018 15:00:00 - - - - - - -
19.02.2018 14:00:00 - - - - - - -
19.02.2018 13:00:00 12,4 11,6 8 4 NNO 1023,8 12
19.02.2018 12:00:00 - - - - - - -
19.02.2018 11:00:00 - - - - - - -
19.02.2018 10:00:00 11,0 10,4 8 4 ZZW 1023,4 15
19.02.2018 09:00:00 - - - - - - -
19.02.2018 08:00:00 - - - - - - -
19.02.2018 07:00:00 11,1 10,2 8 4 ZZW 1023,8 10
19.02.2018 06:00:00 - - - - - - -
19.02.2018 05:00:00 - - - - - - -
19.02.2018 04:00:00 - - - - - - -
19.02.2018 03:00:00 - - - - - - -
19.02.2018 02:00:00 - - - - - - -
19.02.2018 01:00:00 - - - - - - -
19.02.2018 00:00:00 - - - - - - -
18.02.2018 23:00:00 - - - - - - -
18.02.2018 22:00:00 - - - - - - -
18.02.2018 21:00:00 - - - - - - -
18.02.2018 20:00:00 - - - - - - -
18.02.2018 19:00:00 12,0 9,2 8 4 ZW 1026,0 20
18.02.2018 18:00:00 - - - - - - -
18.02.2018 17:00:00 - - - - - - -
18.02.2018 16:00:00 13,2 8,3 15 8 NNO 1026,5 30
18.02.2018 15:00:00 - - - - - - -
18.02.2018 14:00:00 - - - - - - -
18.02.2018 13:00:00 13,2 3,3 8 4 ZZW 1027,4 30
18.02.2018 12:00:00 - - - - - - -
18.02.2018 11:00:00 - - - - - - -
18.02.2018 10:00:00 8,2 3,5 13 7 ZW 1027,5 25
18.02.2018 09:00:00 - - - - - - -
18.02.2018 08:00:00 - - - - - - -
18.02.2018 07:00:00 7,2 3,4 16 9 ZZW 1027,5 15
18.02.2018 06:00:00 - - - - - - -
18.02.2018 05:00:00 - - - - - - -
18.02.2018 04:00:00 - - - - - - -
18.02.2018 03:00:00 - - - - - - -
18.02.2018 02:00:00 - - - - - - -
18.02.2018 01:00:00 - - - - - - -
18.02.2018 00:00:00 - - - - - - -
17.02.2018 23:00:00 - - - - - - -
17.02.2018 22:00:00 - - - - - - -
17.02.2018 21:00:00 - - - - - - -
17.02.2018 20:00:00 - - - - - - -
17.02.2018 19:00:00 11,2 6,9 0 0 N 1028,4 30
17.02.2018 18:00:00 - - - - - - -
17.02.2018 17:00:00 - - - - - - -
17.02.2018 16:00:00 12,8 7,5 5 3 ONO 1028,5 30
17.02.2018 15:00:00 - - - - - - -
17.02.2018 14:00:00 - - - - - - -
17.02.2018 13:00:00 12,8 7,5 4 2 ZW 1028,7 30
17.02.2018 12:00:00 - - - - - - -
17.02.2018 11:00:00 - - - - - - -
17.02.2018 10:00:00 9,2 8,0 4 2 ZW 1027,4 30
17.02.2018 09:00:00 - - - - - - -
17.02.2018 08:00:00 - - - - - - -
17.02.2018 07:00:00 9,4 6,3 4 2 WZW 1025,8 10
17.02.2018 06:00:00 - - - - - - -
17.02.2018 05:00:00 - - - - - - -
17.02.2018 04:00:00 - - - - - - -
17.02.2018 03:00:00 - - - - - - -
17.02.2018 02:00:00 - - - - - - -
17.02.2018 01:00:00 - - - - - - -
17.02.2018 00:00:00 - - - - - - -
16.02.2018 23:00:00 - - - - - - -
16.02.2018 22:00:00 - - - - - - -
16.02.2018 21:00:00 - - - - - - -
16.02.2018 20:00:00 - - - - - - -
16.02.2018 19:00:00 13,0 12,7 0 0 N 1019,8 8
16.02.2018 18:00:00 - - - - - - -
16.02.2018 17:00:00 - - - - - - -
16.02.2018 16:00:00 13,2 12,4 2 1 N 1020,2 0,8
16.02.2018 15:00:00 - - - - - - -
16.02.2018 14:00:00 - - - - - - -
16.02.2018 13:00:00 13,0 12,7 4 2 O 1021,5 0,6
16.02.2018 12:00:00 - - - - - - -
16.02.2018 11:00:00 - - - - - - -
16.02.2018 10:00:00 12,8 12,0 0 0 N 1021,7 0,5
16.02.2018 09:00:00 - - - - - - -
16.02.2018 08:00:00 - - - - - - -
16.02.2018 07:00:00 12,4 12,1 0 0 N 1021,8 0,3
16.02.2018 06:00:00 - - - - - - -
16.02.2018 05:00:00 - - - - - - -
16.02.2018 04:00:00 - - - - - - -
16.02.2018 03:00:00 - - - - - - -
16.02.2018 02:00:00 - - - - - - -
16.02.2018 01:00:00 - - - - - - -
16.02.2018 00:00:00 - - - - - - -
15.02.2018 23:00:00 - - - - - - -
15.02.2018 22:00:00 - - - - - - -
15.02.2018 21:00:00 - - - - - - -
15.02.2018 20:00:00 - - - - - - -
15.02.2018 19:00:00 14,3 11,3 2 1 NO 1021,0 12
15.02.2018 18:00:00 - - - - - - -
15.02.2018 17:00:00 - - - - - - -
15.02.2018 16:00:00 15,8 10,1 4 2 NO 1019,4 30
15.02.2018 15:00:00 - - - - - - -
15.02.2018 14:00:00 - - - - - - -
15.02.2018 13:00:00 16,4 10,7 5 3 NO 1019,2 30

tt = temperatuur
td = dauwpunt
ff = windsnelheid
dd = windrichting
ppp = luchtdruk
vv = zicht

Weerstations in de omgeving